DLH100 EDDF-LIRF

Flight info

Callsign DLH100
Flight time N/A
Altitude 23000
Route CINDY8S/18 CINDY Z74 LAMPU/N0488F410 DCT NOMBO Y161 RIDAR DCT KONIN DCT BERAS DCT LIKDA DCT BAKOR DCT VESAL DCT GAVRA DCT RITEB
Aircraft A359/H-SDE2E3GHIJ3J4J5LM1ORWXY/LB1D1

Departure

Time 2026-04-14 14:55
Airport Frankfurt Main Airport (EDDF)

Arrival

Time N/A
Airport Rome–Fiumicino Leonardo da Vinci International Airport (LIRF)
Time Latitude Longitude Altitude Speed Heading
2026-04-14 14:14 50.04701 8.56172 367 ft 0 kts 341°
2026-04-14 14:45 50.04695 8.56177 365 ft 2 kts 346°
2026-04-14 14:45 50.04684 8.56181 369 ft 3 kts 20°
2026-04-14 14:45 50.04680 8.56181 369 ft 3 kts 45°
2026-04-14 14:45 50.04682 8.56175 364 ft 3 kts
2026-04-14 14:46 50.04680 8.56175 364 ft 3 kts 339°
2026-04-14 14:46 50.04663 8.56184 369 ft 2 kts 327°
2026-04-14 14:46 50.04650 8.56198 367 ft 3 kts 323°
2026-04-14 14:46 50.04635 8.56216 370 ft 3 kts 310°
2026-04-14 14:47 50.04626 8.56234 368 ft 3 kts 279°
2026-04-14 14:47 50.04625 8.56245 366 ft 14 kts 267°
2026-04-14 14:50 50.04625 8.56240 366 ft 3 kts 267°
2026-04-14 14:50 50.04610 8.56146 366 ft 15 kts 256°
2026-04-14 14:50 50.04543 8.55975 369 ft 20 kts 211°
2026-04-14 14:50 50.04386 8.55902 369 ft 27 kts 184°
2026-04-14 14:51 50.04227 8.55864 367 ft 17 kts 234°
2026-04-14 14:51 50.04165 8.55651 364 ft 27 kts 247°
2026-04-14 14:51 50.04095 8.55331 367 ft 35 kts 251°
2026-04-14 14:51 50.04003 8.54935 365 ft 43 kts 249°
2026-04-14 14:52 50.03888 8.54465 363 ft 50 kts 246°
2026-04-14 14:52 50.03743 8.53982 357 ft 41 kts 249°
2026-04-14 14:52 50.03636 8.53542 352 ft 45 kts 249°
2026-04-14 14:52 50.03532 8.53111 353 ft 44 kts 249°
2026-04-14 14:53 50.03484 8.52916 349 ft 11 kts 249°
2026-04-14 14:53 50.03446 8.52765 351 ft 19 kts 249°
2026-04-14 14:53 50.03364 8.52605 348 ft 15 kts 198°
2026-04-14 14:53 50.03300 8.52594 349 ft 0 kts 179°
2026-04-14 14:54 50.03232 8.52596 346 ft 41 kts 179°
2026-04-14 14:54 50.02666 8.52613 342 ft 119 kts 179°
2026-04-14 14:55 50.01621 8.52637 426 ft 170 kts 178°
2026-04-14 14:55 50.00487 8.52684 1396 ft 159 kts 176°
2026-04-14 14:55 49.99403 8.52786 2347 ft 153 kts 173°
2026-04-14 14:55 49.98368 8.52991 3184 ft 147 kts 169°
2026-04-14 14:56 49.96346 8.53883 3966 ft 175 kts 135°
2026-04-14 14:56 49.95571 8.55491 4268 ft 199 kts 117°
2026-04-14 14:56 49.94860 8.57494 4672 ft 225 kts 116°
2026-04-14 14:57 49.94154 8.59808 5083 ft 248 kts 103°
2026-04-14 14:57 49.93931 8.62498 5855 ft 255 kts 90°
2026-04-14 14:57 49.93848 8.65291 6657 ft 264 kts 90°
2026-04-14 14:57 49.93681 8.68150 7195 ft 271 kts 100°
2026-04-14 14:58 49.92751 8.70722 8127 ft 279 kts 134°
2026-04-14 14:58 49.91220 8.72578 9243 ft 281 kts 146°
2026-04-14 14:58 49.89596 8.74293 10238 ft 283 kts 147°
2026-04-14 14:58 49.88169 8.76361 10849 ft 290 kts 128°
2026-04-14 14:59 49.87084 8.79026 11132 ft 294 kts 121°
2026-04-14 14:59 49.86100 8.81810 11191 ft 296 kts 120°
2026-04-14 14:59 49.85116 8.84607 11182 ft 296 kts 120°
2026-04-14 14:59 49.84116 8.87401 11183 ft 297 kts 120°
2026-04-14 15:00 49.83110 8.90191 11181 ft 297 kts 121°
2026-04-14 15:00 49.82097 8.92990 11175 ft 297 kts 121°
2026-04-14 15:00 49.81086 8.95776 11177 ft 297 kts 121°
2026-04-14 15:00 49.80072 8.98564 11194 ft 297 kts 121°
2026-04-14 15:01 49.79049 9.01371 11414 ft 305 kts 121°
2026-04-14 15:01 49.77984 9.04286 11753 ft 328 kts 121°
2026-04-14 15:01 49.76821 9.07470 12202 ft 350 kts 120°
2026-04-14 15:01 49.75875 9.11016 12887 ft 363 kts 107°
2026-04-14 15:02 49.75239 9.14839 13702 ft 371 kts 104°
2026-04-14 15:02 49.74381 9.18626 14455 ft 377 kts 117°
2026-04-14 15:02 49.72964 9.22047 15270 ft 380 kts 127°
2026-04-14 15:02 49.71309 9.25248 16086 ft 383 kts 131°
2026-04-14 15:03 49.69537 9.28346 16905 ft 387 kts 133°
2026-04-14 15:03 49.67731 9.31390 17714 ft 391 kts 134°
2026-04-14 15:03 49.65881 9.34498 18543 ft 396 kts 133°
2026-04-14 15:03 49.64019 9.37660 19284 ft 400 kts 133°
2026-04-14 15:04 49.62024 9.40666 20047 ft 403 kts 141°
2026-04-14 15:04 49.59770 9.43248 20812 ft 405 kts 147°
2026-04-14 15:04 49.57395 9.45627 21573 ft 409 kts 150°
2026-04-14 15:04 49.54950 9.47911 22313 ft 413 kts 151°
2026-04-14 15:05 49.52460 9.50159 23061 ft 417 kts 152°
2026-04-14 15:05 49.49978 9.52374 23797 ft 420 kts 152°
2026-04-14 15:05 49.47433 9.54647 24396 ft 425 kts 152°
2026-04-14 15:05 49.44868 9.56950 25008 ft 429 kts 152°
2026-04-14 15:06 49.42279 9.59286 25608 ft 433 kts 151°
2026-04-14 15:06 49.39671 9.61648 26209 ft 438 kts 151°
2026-04-14 15:06 49.37040 9.64034 26807 ft 441 kts 151°
2026-04-14 15:06 49.34465 9.66646 27387 ft 447 kts 144°
2026-04-14 15:07 49.32089 9.69756 27994 ft 451 kts 139°
2026-04-14 15:07 49.29801 9.73080 28571 ft 455 kts 137°
2026-04-14 15:07 49.27566 9.76461 29142 ft 459 kts 136°
2026-04-14 15:07 49.25307 9.79944 29705 ft 463 kts 136°
2026-04-14 15:08 49.23033 9.83460 30241 ft 466 kts 136°
2026-04-14 15:08 49.20740 9.86994 30679 ft 470 kts 136°
2026-04-14 15:08 49.18423 9.90542 31094 ft 474 kts 136°
2026-04-14 15:08 49.16075 9.94119 31480 ft 478 kts 136°
2026-04-14 15:09 49.13703 9.97717 31857 ft 482 kts 136°
2026-04-14 15:09 49.11319 10.01323 32233 ft 485 kts 136°
2026-04-14 15:09 49.08912 10.04958 32614 ft 488 kts 136°
2026-04-14 15:09 49.06521 10.08561 32966 ft 491 kts 136°
2026-04-14 15:10 49.04068 10.12214 33314 ft 494 kts 137°
2026-04-14 15:10 49.01558 10.15801 33753 ft 495 kts 138°
2026-04-14 15:10 48.99025 10.19342 34260 ft 494 kts 138°
2026-04-14 15:10 48.96489 10.22865 34657 ft 494 kts 138°
2026-04-14 15:11 48.93958 10.26390 35027 ft 494 kts 138°
2026-04-14 15:11 48.91428 10.29931 35373 ft 495 kts 138°
2026-04-14 15:11 48.88900 10.33480 35713 ft 495 kts 138°
2026-04-14 15:11 48.86366 10.37042 36054 ft 496 kts 138°
2026-04-14 15:12 48.83866 10.40556 36374 ft 497 kts 137°
2026-04-14 15:12 48.81342 10.44144 36716 ft 497 kts 136°
2026-04-14 15:12 48.78915 10.47886 37053 ft 498 kts 134°
2026-04-14 15:12 48.76553 10.51727 37377 ft 498 kts 133°
2026-04-14 15:13 48.74207 10.55603 37716 ft 499 kts 133°
2026-04-14 15:13 48.71863 10.59466 38044 ft 499 kts 133°
2026-04-14 15:13 48.69499 10.63323 38384 ft 499 kts 133°
2026-04-14 15:13 48.67121 10.67154 38699 ft 500 kts 134°
2026-04-14 15:14 48.64730 10.70971 38945 ft 501 kts 134°
2026-04-14 15:14 48.62330 10.74786 39184 ft 500 kts 134°
2026-04-14 15:14 48.59855 10.78374 39437 ft 499 kts 140°
2026-04-14 15:14 48.57060 10.81478 39691 ft 498 kts 149°
2026-04-14 15:15 48.54064 10.84094 39937 ft 497 kts 152°
2026-04-14 15:15 48.51022 10.86553 40184 ft 497 kts 153°
2026-04-14 15:15 48.47949 10.88943 40426 ft 496 kts 154°
2026-04-14 15:15 48.44873 10.91299 40664 ft 496 kts 154°
2026-04-14 15:16 48.41796 10.93651 40892 ft 496 kts 154°
2026-04-14 15:16 48.38764 10.95977 41101 ft 496 kts 154°